Obs. Info,,,Ku Data loss info,,,,Ka Data loss info,,,,S/C Control Mode,,,,,,,,DPR Ku Mode,,,,,,,DPR Ka Mode,,,,,,
Scene No.,Start Time,End Time,The total number of scannings,The number of data loss scannings,Data loss rate,Remarks,The total number of scannings,The number of data loss scannings,Data loss rate,Remarks,Launch,Rate Null,Sun Point/Safe Hold,Mission,Slew,Delta V,Delta H,Remarks,Observation,Ext. Cal.,Int. Cal.,SSPA,LNA,Standby,Remarks,Observation,Ext. Cal.,Int. Cal.,SSPA,LNA,Standby,Remarks
004782,14/12/31 23:57:00,15/01/01 01:29:32,7931,1,0.0100,,7931,0,0.0000,,,,,*,,,,,*,,,,,,,*,,,,,,
004781,14/12/31 22:24:28,14/12/31 23:57:00,7931,0,0.0000,,7931,0,0.0000,,,,,*,,,,,*,,,,,,,*,,,,,,
004780,14/12/31 20:51:56,14/12/31 22:24:28,7932,0,0.0000,,7932,0,0.0000,,,,,*,,,,,*,,,,,,,*,,,,,,
004779,14/12/31 19:19:24,14/12/31 20:51:56,7931,0,0.0000,,7931,0,0.0000,,,,,*,,,,,*,,,,,,,*,,,,,,
004778,14/12/31 17:46:52,14/12/31 19:19:24,7932,235,2.9600,Int. cal.,7932,235,2.9600,Int. cal.,,,,*,,,,,*,,*,,,,,*,,*,,,,
004777,14/12/31 16:14:20,14/12/31 17:46:52,7931,0,0.0000,,7931,0,0.0000,,,,,*,,,,,*,,,,,,,*,,,,,,
004776,14/12/31 14:41:48,14/12/31 16:14:20,7932,0,0.0000,,7932,0,0.0000,,,,,*,,,,,*,,,,,,,*,,,,,,
004775,14/12/31 13:09:16,14/12/31 14:41:48,7931,0,0.0000,,7931,0,0.0000,,,,,*,,,,,*,,,,,,,*,,,,,,
004774,14/12/31 11:36:44,14/12/31 13:09:16,7932,0,0.0000,,7932,0,0.0000,,,,,*,,,,,*,,,,,,,*,,,,,,
004773,14/12/31 10:04:12,14/12/31 11:36:44,7931,0,0.0000,,7931,0,0.0000,,,,,*,,,,,*,,,,,,,*,,,,,,
004772,14/12/31 08:31:40,14/12/31 10:04:12,7932,0,0.0000,,7932,0,0.0000,,,,,*,,,,,*,,,,,,,*,,,,,,
004771,14/12/31 06:59:08,14/12/31 08:31:40,7931,0,0.0000,,7931,0,0.0000,,,,,*,,,,,*,,,,,,,*,,,,,,
004770,14/12/31 05:26:36,14/12/31 06:59:08,7932,0,0.0000,,7932,0,0.0000,,,,,*,,,,,*,,,,,,,*,,,,,,
004769,14/12/31 03:54:04,14/12/31 05:26:36,7931,0,0.0000,,7931,0,0.0000,,,,,*,,,,,*,,,,,,,*,,,,,,
004768,14/12/31 02:21:31,14/12/31 03:54:04,7932,0,0.0000,,7932,0,0.0000,,,,,*,,,,,*,,,,,,,*,,,,,,
004767,14/12/31 00:48:59,14/12/31 02:21:31,7932,0,0.0000,,7932,0,0.0000,,,,,*,,,,,*,,,,,,,*,,,,,,
004766,14/12/30 23:16:27,14/12/31 00:48:59,7931,0,0.0000,,7931,0,0.0000,,,,,*,,,,,*,,,,,,,*,,,,,,
004765,14/12/30 21:43:55,14/12/30 23:16:27,7932,0,0.0000,,7932,0,0.0000,,,,,*,,,,,*,,,,,,,*,,,,,,
004764,14/12/30 20:11:23,14/12/30 21:43:55,7931,0,0.0000,,7931,0,0.0000,,,,,*,,,,,*,,,,,,,*,,,,,,
004763,14/12/30 18:38:51,14/12/30 20:11:23,7932,0,0.0000,,7932,0,0.0000,,,,,*,,,,,*,,,,,,,*,,,,,,
004762,14/12/30 17:06:19,14/12/30 18:38:51,7932,0,0.0000,,7932,0,0.0000,,,,,*,,,,,*,,,,,,,*,,,,,,
004761,14/12/30 15:33:47,14/12/30 17:06:19,7931,0,0.0000,,7931,0,0.0000,,,,,*,,,,,*,,,,,,,*,,,,,,
004760,14/12/30 14:01:14,14/12/30 15:33:47,7932,0,0.0000,,7932,0,0.0000,,,,,*,,,,,*,,,,,,,*,,,,,,
004759,14/12/30 12:28:42,14/12/30 14:01:14,7932,0,0.0000,,7932,0,0.0000,,,,,*,,,,,*,,,,,,,*,,,,,,
004758,14/12/30 10:56:10,14/12/30 12:28:42,7932,0,0.0000,,7932,0,0.0000,,,,,*,,,,,*,,,,,,,*,,,,,,
004757,14/12/30 09:23:37,14/12/30 10:56:10,7932,0,0.0000,,7932,0,0.0000,,,,,*,,,,,*,,,,,,,*,,,,,,
004756,14/12/30 07:51:06,14/12/30 09:23:37,7931,0,0.0000,,7931,0,0.0000,,,,,*,,,,,*,,,,,,,*,,,,,,
004755,14/12/30 06:18:33,14/12/30 07:51:06,7932,0,0.0000,,7932,0,0.0000,,,,,*,,,,,*,,,,,,,*,,,,,,
004754,14/12/30 04:46:01,14/12/30 06:18:33,7932,0,0.0000,,7932,0,0.0000,,,,,*,,,,,*,,,,,,,*,,,,,,
004753,14/12/30 03:13:28,14/12/30 04:46:01,7932,0,0.0000,,7932,0,0.0000,,,,,*,,,,,*,,,,,,,*,,,,,,
004752,14/12/30 01:40:56,14/12/30 03:13:28,7932,0,0.0000,,7932,0,0.0000,,,,,*,,,,,*,,,,,,,*,,,,,,
004751,14/12/30 00:08:24,14/12/30 01:40:56,7931,0,0.0000,,7931,0,0.0000,,,,,*,,,,,*,,,,,,,*,,,,,,
004750,14/12/29 22:35:52,14/12/30 00:08:24,7932,0,0.0000,,7932,0,0.0000,,,,,*,,,,,*,,,,,,,*,,,,,,
004749,14/12/29 21:03:19,14/12/29 22:35:52,7932,0,0.0000,,7932,0,0.0000,,,,,*,,,,,*,,,,,,,*,,,,,,
004748,14/12/29 19:30:47,14/12/29 21:03:19,7932,0,0.0000,,7932,0,0.0000,,,,,*,,,,,*,,,,,,,*,,,,,,
004747,14/12/29 17:58:15,14/12/29 19:30:47,7932,0,0.0000,,7932,0,0.0000,,,,,*,,,,,*,,,,,,,*,,,,,,
004746,14/12/29 16:25:42,14/12/29 17:58:15,7932,0,0.0000,,7932,0,0.0000,,,,,*,,,,,*,,,,,,,*,,,,,,
004745,14/12/29 14:53:10,14/12/29 16:25:42,7932,0,0.0000,,7932,0,0.0000,,,,,*,,,,,*,,,,,,,*,,,,,,
004744,14/12/29 13:20:38,14/12/29 14:53:10,7932,0,0.0000,,7932,0,0.0000,,,,,*,,,,,*,,,,,,,*,,,,,,
004743,14/12/29 11:48:05,14/12/29 13:20:38,7932,0,0.0000,,7932,0,0.0000,,,,,*,,,,,*,,,,,,,*,,,,,,
004742,14/12/29 10:15:33,14/12/29 11:48:05,7932,0,0.0000,,7932,0,0.0000,,,,,*,,,,,*,,,,,,,*,,,,,,
004741,14/12/29 08:43:00,14/12/29 10:15:33,7932,0,0.0000,,7932,0,0.0000,,,,,*,,,,,*,,,,,,,*,,,,,,
004740,14/12/29 07:10:28,14/12/29 08:43:00,7932,0,0.0000,,7932,0,0.0000,,,,,*,,,,,*,,,,,,,*,,,,,,
004739,14/12/29 05:37:55,14/12/29 07:10:28,7932,0,0.0000,,7932,0,0.0000,,,,,*,,,,,*,,,,,,,*,,,,,,
004738,14/12/29 04:05:23,14/12/29 05:37:55,7933,0,0.0000,,7933,0,0.0000,,,,,*,,,,,*,,,,,,,*,,,,,,
004737,14/12/29 02:32:50,14/12/29 04:05:23,7932,0,0.0000,,7932,0,0.0000,,,,,*,,,,,*,,,,,,,*,,,,,,
004736,14/12/29 01:00:18,14/12/29 02:32:50,7932,0,0.0000,,7932,0,0.0000,,,,,*,,,,,*,,,,,,,*,,,,,,
004735,14/12/28 23:27:45,14/12/29 01:00:18,7932,0,0.0000,,7932,0,0.0000,,,,,*,,,,,*,,,,,,,*,,,,,,
004734,14/12/28 21:55:13,14/12/28 23:27:45,7932,0,0.0000,,7932,0,0.0000,,,,,*,,,,,*,,,,,,,*,,,,,,
004733,14/12/28 20:22:40,14/12/28 21:55:13,7932,0,0.0000,,7932,0,0.0000,,,,,*,,,,,*,,,,,,,*,,,,,,
004732,14/12/28 18:50:08,14/12/28 20:22:40,7933,0,0.0000,,7933,0,0.0000,,,,,*,,,,,*,,,,,,,*,,,,,,
004731,14/12/28 17:17:35,14/12/28 18:50:08,7932,0,0.0000,,7932,0,0.0000,,,,,*,,,,,*,,,,,,,*,,,,,,
004730,14/12/28 15:45:02,14/12/28 17:17:35,7932,0,0.0000,,7932,0,0.0000,,,,,*,,,,,*,,,,,,,*,,,,,,
004729,14/12/28 14:12:30,14/12/28 15:45:02,7933,0,0.0000,,7933,0,0.0000,,,,,*,,,,,*,,,,,,,*,,,,,,
004728,14/12/28 12:39:57,14/12/28 14:12:30,7932,0,0.0000,,7932,0,0.0000,,,,,*,,,,,*,,,,,,,*,,,,,,
004727,14/12/28 11:07:25,14/12/28 12:39:57,7932,0,0.0000,,7932,0,0.0000,,,,,*,,,,,*,,,,,,,*,,,,,,
004726,14/12/28 09:34:52,14/12/28 11:07:25,7932,0,0.0000,,7932,0,0.0000,,,,,*,,,,,*,,,,,,,*,,,,,,
004725,14/12/28 08:02:19,14/12/28 09:34:52,7933,0,0.0000,,7933,0,0.0000,,,,,*,,,,,*,,,,,,,*,,,,,,
004724,14/12/28 06:29:47,14/12/28 08:02:19,7932,0,0.0000,,7932,0,0.0000,,,,,*,,,,,*,,,,,,,*,,,,,,
004723,14/12/28 04:57:14,14/12/28 06:29:47,7933,0,0.0000,,7933,0,0.0000,,,,,*,,,,,*,,,,,,,*,,,,,,
004722,14/12/28 03:24:42,14/12/28 04:57:14,7932,0,0.0000,,7932,0,0.0000,,,,,*,,,,,*,,,,,,,*,,,,,,
004721,14/12/28 01:52:09,14/12/28 03:24:42,7932,0,0.0000,,7932,0,0.0000,,,,,*,,,,,*,,,,,,,*,,,,,,
004720,14/12/28 00:19:36,14/12/28 01:52:09,7933,0,0.0000,,7933,0,0.0000,,,,,*,,,,,*,,,,,,,*,,,,,,
004719,14/12/27 22:47:03,14/12/28 00:19:36,7932,0,0.0000,,7932,0,0.0000,,,,,*,,,,,*,,,,,,,*,,,,,,
004718,14/12/27 21:14:31,14/12/27 22:47:03,7932,0,0.0000,,7932,0,0.0000,,,,,*,,,,,*,,,,,,,*,,,,,,
004717,14/12/27 19:41:58,14/12/27 21:14:31,7933,0,0.0000,,7933,0,0.0000,,,,,*,,,,,*,,,,,,,*,,,,,,
004716,14/12/27 18:09:25,14/12/27 19:41:58,7933,0,0.0000,,7933,0,0.0000,,,,,*,,,,,*,,,,,,,*,,,,,,
004715,14/12/27 16:36:52,14/12/27 18:09:25,7932,0,0.0000,,7932,0,0.0000,,,,,*,,,,,*,,,,,,,*,,,,,,
004714,14/12/27 15:04:20,14/12/27 16:36:52,7933,0,0.0000,,7933,0,0.0000,,,,,*,,,,,*,,,,,,,*,,,,,,
004713,14/12/27 13:31:47,14/12/27 15:04:20,7932,0,0.0000,,7932,0,0.0000,,,,,*,,,,,*,,,,,,,*,,,,,,
004712,14/12/27 11:59:14,14/12/27 13:31:47,7933,0,0.0000,,7933,0,0.0000,,,,,*,,,,,*,,,,,,,*,,,,,,
004711,14/12/27 10:26:41,14/12/27 11:59:14,7932,0,0.0000,,7932,0,0.0000,,,,,*,,,,,*,,,,,,,*,,,,,,
004710,14/12/27 08:54:08,14/12/27 10:26:41,7933,0,0.0000,,7933,0,0.0000,,,,,*,,,,,*,,,,,,,*,,,,,,
004709,14/12/27 07:21:36,14/12/27 08:54:08,7932,0,0.0000,,7932,0,0.0000,,,,,*,,,,,*,,,,,,,*,,,,,,
004708,14/12/27 05:49:03,14/12/27 07:21:36,7933,0,0.0000,,7933,0,0.0000,,,,,*,,,,,*,,,,,,,*,,,,,,
004707,14/12/27 04:16:30,14/12/27 05:49:03,7933,0,0.0000,,7933,0,0.0000,,,,,*,,,,,*,,,,,,,*,,,,,,
004706,14/12/27 02:43:57,14/12/27 04:16:30,7932,0,0.0000,,7932,0,0.0000,,,,,*,,,,,*,,,,,,,*,,,,,,
004705,14/12/27 01:11:24,14/12/27 02:43:57,7933,0,0.0000,,7933,0,0.0000,,,,,*,,,,,*,,,,,,,*,,,,,,
004704,14/12/26 23:38:51,14/12/27 01:11:24,7933,0,0.0000,,7933,0,0.0000,,,,,*,,,,,*,,,,,,,*,,,,,,
004703,14/12/26 22:06:18,14/12/26 23:38:51,7933,0,0.0000,,7933,0,0.0000,,,,,*,,,,,*,,,,,,,*,,,,,,
004702,14/12/26 20:33:45,14/12/26 22:06:18,7932,0,0.0000,,7932,1,0.0100,,,,,*,,,,,*,,,,,,,*,,,,,,
004701,14/12/26 19:01:13,14/12/26 20:33:45,7933,0,0.0000,,7933,0,0.0000,,,,,*,,,,,*,,,,,,,*,,,,,,
004700,14/12/26 17:28:40,14/12/26 19:01:13,7933,0,0.0000,,7933,0,0.0000,,,,,*,,,,,*,,,,,,,*,,,,,,
004699,14/12/26 15:56:07,14/12/26 17:28:40,7932,0,0.0000,,7932,0,0.0000,,,,,*,,,,,*,,,,,,,*,,,,,,
004698,14/12/26 14:23:34,14/12/26 15:56:07,7933,0,0.0000,,7933,0,0.0000,,,,,*,,,,,*,,,,,,,*,,,,,,
004697,14/12/26 12:51:01,14/12/26 14:23:34,7933,0,0.0000,,7933,0,0.0000,,,,,*,,,,,*,,,,,,,*,,,,,,
004696,14/12/26 11:18:28,14/12/26 12:51:01,7933,0,0.0000,,7933,0,0.0000,,,,,*,,,,,*,,,,,,,*,,,,,,
004695,14/12/26 09:45:55,14/12/26 11:18:28,7932,0,0.0000,,7932,0,0.0000,,,,,*,,,,,*,,,,,,,*,,,,,,
004694,14/12/26 08:13:22,14/12/26 09:45:55,7934,0,0.0000,,7934,0,0.0000,,,,,*,,,,,*,,,,,,,*,,,,,,
004693,14/12/26 06:40:49,14/12/26 08:13:22,7932,0,0.0000,,7932,0,0.0000,,,,,*,,,,,*,,,,,,,*,,,,,,
004692,14/12/26 05:08:16,14/12/26 06:40:49,7933,0,0.0000,,7933,0,0.0000,,,,,*,,,,,*,,,,,,,*,,,,,,
004691,14/12/26 03:35:43,14/12/26 05:08:16,7933,0,0.0000,,7933,0,0.0000,,,,,*,,,,,*,,,,,,,*,,,,,,
004690,14/12/26 02:03:10,14/12/26 03:35:43,7933,0,0.0000,,7933,0,0.0000,,,,,*,,,,,*,,,,,,,*,,,,,,
004689,14/12/26 00:30:37,14/12/26 02:03:10,7933,0,0.0000,,7933,0,0.0000,,,,,*,,,,,*,,,,,,,*,,,,,,
004688,14/12/25 22:58:04,14/12/26 00:30:37,7933,0,0.0000,,7933,0,0.0000,,,,,*,,,,,*,,,,,,,*,,,,,,
004687,14/12/25 21:25:30,14/12/25 22:58:04,7933,0,0.0000,,7933,0,0.0000,,,,,*,,,,,*,,,,,,,*,,,,,,
004686,14/12/25 19:52:57,14/12/25 21:25:30,7933,0,0.0000,,7933,0,0.0000,,,,,*,,,,,*,,,,,,,*,,,,,,
004685,14/12/25 18:20:24,14/12/25 19:52:57,7933,0,0.0000,,7933,0,0.0000,,,,,*,,,,,*,,,,,,,*,,,,,,
004684,14/12/25 16:47:51,14/12/25 18:20:24,7933,0,0.0000,,7933,0,0.0000,,,,,*,,,,,*,,,,,,,*,,,,,,
004683,14/12/25 15:15:18,14/12/25 16:47:51,7933,0,0.0000,,7933,0,0.0000,,,,,*,,,,,*,,,,,,,*,,,,,,
004682,14/12/25 13:42:45,14/12/25 15:15:18,7933,0,0.0000,,7933,0,0.0000,,,,,*,,,,,*,,,,,,,*,,,,,,
004681,14/12/25 12:10:12,14/12/25 13:42:45,7933,0,0.0000,,7933,0,0.0000,,,,,*,,,,,*,,,,,,,*,,,,,,
004680,14/12/25 10:37:38,14/12/25 12:10:12,7933,0,0.0000,,7933,0,0.0000,,,,,*,,,,,*,,,,,,,*,,,,,,
004679,14/12/25 09:05:05,14/12/25 10:37:38,7933,0,0.0000,,7933,0,0.0000,,,,,*,,,,,*,,,,,,,*,,,,,,
004678,14/12/25 07:32:32,14/12/25 09:05:05,7934,1,0.0100,,7934,0,0.0000,,,,,*,,,,,*,,,,,,,*,,,,,,
004677,14/12/25 05:59:59,14/12/25 07:32:32,7933,0,0.0000,,7933,0,0.0000,,,,,*,,,,,*,,,,,,,*,,,,,,
004676,14/12/25 04:27:26,14/12/25 05:59:59,7933,0,0.0000,,7933,0,0.0000,,,,,*,,,,,*,,,,,,,*,,,,,,
004675,14/12/25 02:54:52,14/12/25 04:27:26,7933,0,0.0000,,7933,0,0.0000,,,,,*,,,,,*,,,,,,,*,,,,,,
004674,14/12/25 01:22:19,14/12/25 02:54:52,7933,0,0.0000,,7933,0,0.0000,,,,,*,,,,,*,,,,,,,*,,,,,,
004673,14/12/24 23:49:46,14/12/25 01:22:19,7934,0,0.0000,,7934,0,0.0000,,,,,*,,,,,*,,,,,,,*,,,,,,
004672,14/12/24 22:17:13,14/12/24 23:49:46,7933,0,0.0000,,7933,0,0.0000,,,,,*,,,,,*,,,,,,,*,,,,,,
004671,14/12/24 20:44:39,14/12/24 22:17:13,7933,0,0.0000,,7933,0,0.0000,,,,,*,,,,,*,,,,,,,*,,,,,,
004670,14/12/24 19:12:06,14/12/24 20:44:39,7934,0,0.0000,,7934,0,0.0000,,,,,*,,,,,*,,,,,,,*,,,,,,
004669,14/12/24 17:39:33,14/12/24 19:12:06,7933,0,0.0000,,7933,0,0.0000,,,,,*,,,,,*,,,,,,,*,,,,,,
004668,14/12/24 16:06:59,14/12/24 17:39:33,7933,0,0.0000,,7933,0,0.0000,,,,,*,,,,,*,,,,,,,*,,,,,,
004667,14/12/24 14:34:26,14/12/24 16:06:59,7934,222,2.8000,Int. cal.,7934,222,2.8000,Int. cal.,,,,*,,,,,*,,*,,,,,*,,*,,,,
004666,14/12/24 13:01:52,14/12/24 14:34:26,7933,0,0.0000,,7933,0,0.0000,,,,,*,,,,,*,,,,,,,*,,,,,,
004665,14/12/24 11:29:19,14/12/24 13:01:52,7933,0,0.0000,,7933,0,0.0000,,,,,*,,,,,*,,,,,,,*,,,,,,
004664,14/12/24 09:56:46,14/12/24 11:29:19,7934,0,0.0000,,7934,0,0.0000,,,,,*,,,,,*,,,,,,,*,,,,,,
004663,14/12/24 08:24:13,14/12/24 09:56:46,7933,0,0.0000,,7933,0,0.0000,,,,,*,,,,,*,,,,,,,*,,,,,,
004662,14/12/24 06:51:39,14/12/24 08:24:13,7934,0,0.0000,,7934,0,0.0000,,,,,*,,,,,*,,,,,,,*,,,,,,
004661,14/12/24 05:19:06,14/12/24 06:51:39,7933,0,0.0000,,7933,0,0.0000,,,,,*,,,,,*,,,,,,,*,,,,,,
004660,14/12/24 03:46:32,14/12/24 05:19:06,7934,0,0.0000,,7934,0,0.0000,,,,,*,,,,,*,,,,,,,*,,,,,,
004659,14/12/24 02:13:59,14/12/24 03:46:32,7933,559,7.0500,Ext. cal.,7933,560,7.0600,Ext. cal.,,,,*,,,,,*,*,,,,*,,*,*,,,,*,
004658,14/12/24 00:41:25,14/12/24 02:13:59,7934,0,0.0000,,7934,0,0.0000,,,,,*,,,,,*,,,,,,,*,,,,,,
004657,14/12/23 23:08:52,14/12/24 00:41:25,7933,0,0.0000,,7933,0,0.0000,,,,,*,,,,,*,,,,,,,*,,,,,,
004656,14/12/23 21:36:18,14/12/23 23:08:52,7934,0,0.0000,,7934,0,0.0000,,,,,*,,,,,*,,,,,,,*,,,,,,
004655,14/12/23 20:03:45,14/12/23 21:36:18,7934,0,0.0000,,7934,0,0.0000,,,,,*,,,,,*,,,,,,,*,,,,,,
004654,14/12/23 18:31:11,14/12/23 20:03:45,7933,0,0.0000,,7933,0,0.0000,,,,,*,,,,,*,,,,,,,*,,,,,,
004653,14/12/23 16:58:38,14/12/23 18:31:11,7934,0,0.0000,,7934,0,0.0000,,,,,*,,,,,*,,,,,,,*,,,,,,
004652,14/12/23 15:26:04,14/12/23 16:58:38,7933,946,11.9200,Phase code(Ext. cal.) dump,7933,946,11.9200,Phase code(Ext. cal.) dump,,,,*,,,,,*,,,,,*,,*,,,,,*,
004651,14/12/23 13:53:30,14/12/23 15:26:04,7934,0,0.0000,,7934,0,0.0000,,,,,*,,,,,*,,,,,,,*,,,,,,
004650,14/12/23 12:20:57,14/12/23 13:53:30,7934,0,0.0000,,7934,0,0.0000,,,,,*,,,,,*,,,,,,,*,,,,,,
004649,14/12/23 10:48:23,14/12/23 12:20:57,7933,0,0.0000,,7933,0,0.0000,,,,,*,,,,,*,,,,,,,*,,,,,,
004648,14/12/23 09:15:50,14/12/23 10:48:23,7934,0,0.0000,,7934,0,0.0000,,,,,*,,,,,*,,,,,,,*,,,,,,
004647,14/12/23 07:43:16,14/12/23 09:15:50,7934,0,0.0000,,7934,0,0.0000,,,,,*,,,,,*,,,,,,,*,,,,,,
004646,14/12/23 06:10:42,14/12/23 07:43:16,7934,0,0.0000,,7934,0,0.0000,,,,,*,,,,,*,,,,,,,*,,,,,,
004645,14/12/23 04:38:09,14/12/23 06:10:42,7934,0,0.0000,,7934,0,0.0000,,,,,*,,,,,*,,,,,,,*,,,,,,
004644,14/12/23 03:05:35,14/12/23 04:38:09,7933,0,0.0000,,7933,0,0.0000,,,,,*,,,,,*,,,,,,,*,,,,,,
004643,14/12/23 01:33:01,14/12/23 03:05:35,7934,0,0.0000,,7934,0,0.0000,,,,,*,,,,,*,,,,,,,*,,,,,,
004642,14/12/23 00:00:28,14/12/23 01:33:01,7934,0,0.0000,,7934,0,0.0000,,,,,*,,,,,*,,,,,,,*,,,,,,
004641,14/12/22 22:27:54,14/12/23 00:00:28,7934,0,0.0000,,7934,0,0.0000,,,,,*,,,,,*,,,,,,,*,,,,,,
004640,14/12/22 20:55:20,14/12/22 22:27:54,7934,0,0.0000,,7934,0,0.0000,,,,,*,,,,,*,,,,,,,*,,,,,,
004639,14/12/22 19:22:46,14/12/22 20:55:20,7934,0,0.0000,,7934,0,0.0000,,,,,*,,,,,*,,,,,,,*,,,,,,
004638,14/12/22 17:50:13,14/12/22 19:22:46,7934,0,0.0000,,7934,0,0.0000,,,,,*,,,,,*,,,,,,,*,,,,,,
004637,14/12/22 16:17:39,14/12/22 17:50:13,7934,0,0.0000,,7934,0,0.0000,,,,,*,,,,,*,,,,,,,*,,,,,,
004636,14/12/22 14:45:05,14/12/22 16:17:39,7934,0,0.0000,,7934,0,0.0000,,,,,*,,,,,*,,,,,,,*,,,,,,
004635,14/12/22 13:12:31,14/12/22 14:45:05,7934,0,0.0000,,7934,0,0.0000,,,,,*,,,,,*,,,,,,,*,,,,,,
004634,14/12/22 11:39:57,14/12/22 13:12:31,7934,0,0.0000,,7934,0,0.0000,,,,,*,,,,,*,,,,,,,*,,,,,,
004633,14/12/22 10:07:24,14/12/22 11:39:57,7934,0,0.0000,,7934,0,0.0000,,,,,*,,,,,*,,,,,,,*,,,,,,
004632,14/12/22 08:34:50,14/12/22 10:07:24,7934,0,0.0000,,7934,0,0.0000,,,,,*,,,,,*,,,,,,,*,,,,,,
004631,14/12/22 07:02:16,14/12/22 08:34:50,7934,0,0.0000,,7934,0,0.0000,,,,,*,,,,,*,,,,,,,*,,,,,,
004630,14/12/22 05:29:42,14/12/22 07:02:16,7934,0,0.0000,,7934,0,0.0000,,,,,*,,,,,*,,,,,,,*,,,,,,
004629,14/12/22 03:57:08,14/12/22 05:29:42,7934,0,0.0000,,7934,0,0.0000,,,,,*,,,,,*,,,,,,,*,,,,,,
004628,14/12/22 02:24:34,14/12/22 03:57:08,7935,0,0.0000,,7935,0,0.0000,,,,,*,,,,,*,,,,,,,*,,,,,,
004627,14/12/22 00:52:00,14/12/22 02:24:34,7934,0,0.0000,,7934,0,0.0000,,,,,*,,,,,*,,,,,,,*,,,,,,
004626,14/12/21 23:19:26,14/12/22 00:52:00,7934,0,0.0000,,7934,0,0.0000,,,,,*,,,,,*,,,,,,,*,,,,,,
004625,14/12/21 21:46:52,14/12/21 23:19:26,7935,0,0.0000,,7935,0,0.0000,,,,,*,,,,,*,,,,,,,*,,,,,,
004624,14/12/21 20:14:18,14/12/21 21:46:52,7934,0,0.0000,,7934,0,0.0000,,,,,*,,,,,*,,,,,,,*,,,,,,
004623,14/12/21 18:41:44,14/12/21 20:14:18,7934,0,0.0000,,7934,0,0.0000,,,,,*,,,,,*,,,,,,,*,,,,,,
004622,14/12/21 17:09:10,14/12/21 18:41:44,7934,0,0.0000,,7934,0,0.0000,,,,,*,,,,,*,,,,,,,*,,,,,,
004621,14/12/21 15:36:36,14/12/21 17:09:10,7935,0,0.0000,,7935,0,0.0000,,,,,*,,,,,*,,,,,,,*,,,,,,
004620,14/12/21 14:04:02,14/12/21 15:36:36,7934,0,0.0000,,7934,0,0.0000,,,,,*,,,,,*,,,,,,,*,,,,,,
004619,14/12/21 12:31:28,14/12/21 14:04:02,7934,0,0.0000,,7934,0,0.0000,,,,,*,,,,,*,,,,,,,*,,,,,,
004618,14/12/21 10:58:54,14/12/21 12:31:28,7935,0,0.0000,,7935,0,0.0000,,,,,*,,,,,*,,,,,,,*,,,,,,
004617,14/12/21 09:26:20,14/12/21 10:58:54,7934,0,0.0000,,7934,0,0.0000,,,,,*,,,,,*,,,,,,,*,,,,,,
004616,14/12/21 07:53:46,14/12/21 09:26:20,7935,0,0.0000,,7935,0,0.0000,,,,,*,,,,,*,,,,,,,*,,,,,,
004615,14/12/21 06:21:11,14/12/21 07:53:46,7934,0,0.0000,,7934,0,0.0000,,,,,*,,,,,*,,,,,,,*,,,,,,
004614,14/12/21 04:48:37,14/12/21 06:21:11,7935,0,0.0000,,7935,0,0.0000,,,,,*,,,,,*,,,,,,,*,,,,,,
004613,14/12/21 03:16:03,14/12/21 04:48:37,7934,1,0.0100,,7934,0,0.0000,,,,,*,,,,,*,,,,,,,*,,,,,,
004612,14/12/21 01:43:29,14/12/21 03:16:03,7935,0,0.0000,,7935,0,0.0000,,,,,*,,,,,*,,,,,,,*,,,,,,
004611,14/12/21 00:10:55,14/12/21 01:43:29,7935,0,0.0000,,7935,0,0.0000,,,,,*,,,,,*,,,,,,,*,,,,,,
004610,14/12/20 22:38:21,14/12/21 00:10:55,7934,0,0.0000,,7934,0,0.0000,,,,,*,,,,,*,,,,,,,*,,,,,,
004609,14/12/20 21:05:46,14/12/20 22:38:21,7935,0,0.0000,,7935,0,0.0000,,,,,*,,,,,*,,,,,,,*,,,,,,
004608,14/12/20 19:33:12,14/12/20 21:05:46,7934,0,0.0000,,7934,0,0.0000,,,,,*,,,,,*,,,,,,,*,,,,,,
004607,14/12/20 18:00:38,14/12/20 19:33:12,7935,0,0.0000,,7935,0,0.0000,,,,,*,,,,,*,,,,,,,*,,,,,,
004606,14/12/20 16:28:03,14/12/20 18:00:38,7935,0,0.0000,,7935,0,0.0000,,,,,*,,,,,*,,,,,,,*,,,,,,
004605,14/12/20 14:55:29,14/12/20 16:28:03,7935,0,0.0000,,7935,0,0.0000,,,,,*,,,,,*,,,,,,,*,,,,,,
004604,14/12/20 13:22:55,14/12/20 14:55:29,7934,0,0.0000,,7934,0,0.0000,,,,,*,,,,,*,,,,,,,*,,,,,,
004603,14/12/20 11:50:21,14/12/20 13:22:55,7935,0,0.0000,,7935,0,0.0000,,,,,*,,,,,*,,,,,,,*,,,,,,
004602,14/12/20 10:17:46,14/12/20 11:50:21,7935,0,0.0000,,7935,0,0.0000,,,,,*,,,,,*,,,,,,,*,,,,,,
004601,14/12/20 08:45:12,14/12/20 10:17:46,7935,0,0.0000,,7935,0,0.0000,,,,,*,,,,,*,,,,,,,*,,,,,,
004600,14/12/20 07:12:37,14/12/20 08:45:12,7935,0,0.0000,,7935,0,0.0000,,,,,*,,,,,*,,,,,,,*,,,,,,
004599,14/12/20 05:40:03,14/12/20 07:12:37,7935,0,0.0000,,7935,0,0.0000,,,,,*,,,,,*,,,,,,,*,,,,,,
004598,14/12/20 04:07:29,14/12/20 05:40:03,7934,0,0.0000,,7934,0,0.0000,,,,,*,,,,,*,,,,,,,*,,,,,,
004597,14/12/20 02:34:54,14/12/20 04:07:29,7935,0,0.0000,,7935,0,0.0000,,,,,*,,,,,*,,,,,,,*,,,,,,
004596,14/12/20 01:02:20,14/12/20 02:34:54,7935,0,0.0000,,7935,0,0.0000,,,,,*,,,,,*,,,,,,,*,,,,,,
004595,14/12/19 23:29:46,14/12/20 01:02:20,7935,0,0.0000,,7935,0,0.0000,,,,,*,,,,,*,,,,,,,*,,,,,,
004594,14/12/19 21:57:11,14/12/19 23:29:46,7935,0,0.0000,,7935,0,0.0000,,,,,*,,,,,*,,,,,,,*,,,,,,
004593,14/12/19 20:24:36,14/12/19 21:57:11,7935,0,0.0000,,7935,0,0.0000,,,,,*,,,,,*,,,,,,,*,,,,,,
004592,14/12/19 18:52:02,14/12/19 20:24:36,7935,0,0.0000,,7935,0,0.0000,,,,,*,,,,,*,,,,,,,*,,,,,,
004591,14/12/19 17:19:27,14/12/19 18:52:02,7935,0,0.0000,,7935,0,0.0000,,,,,*,,,,,*,,,,,,,*,,,,,,
004590,14/12/19 15:46:53,14/12/19 17:19:27,7935,0,0.0000,,7935,0,0.0000,,,,,*,,,,,*,,,,,,,*,,,,,,
004589,14/12/19 14:14:19,14/12/19 15:46:53,7935,0,0.0000,,7935,0,0.0000,,,,,*,,,,,*,,,,,,,*,,,,,,
004588,14/12/19 12:41:44,14/12/19 14:14:19,7935,0,0.0000,,7935,0,0.0000,,,,,*,,,,,*,,,,,,,*,,,,,,
004587,14/12/19 11:09:09,14/12/19 12:41:44,7935,0,0.0000,,7935,0,0.0000,,,,,*,,,,,*,,,,,,,*,,,,,,
004586,14/12/19 09:36:35,14/12/19 11:09:09,7935,0,0.0000,,7935,0,0.0000,,,,,*,,,,,*,,,,,,,*,,,,,,
004585,14/12/19 08:04:00,14/12/19 09:36:35,7935,0,0.0000,,7935,0,0.0000,,,,,*,,,,,*,,,,,,,*,,,,,,
004584,14/12/19 06:31:26,14/12/19 08:04:00,7935,0,0.0000,,7935,0,0.0000,,,,,*,,,,,*,,,,,,,*,,,,,,
004583,14/12/19 04:58:51,14/12/19 06:31:26,7936,0,0.0000,,7936,0,0.0000,,,,,*,,,,,*,,,,,,,*,,,,,,
004582,14/12/19 03:26:16,14/12/19 04:58:51,7935,0,0.0000,,7935,0,0.0000,,,,,*,,,,,*,,,,,,,*,,,,,,
004581,14/12/19 01:53:42,14/12/19 03:26:16,7935,0,0.0000,,7935,0,0.0000,,,,,*,,,,,*,,,,,,,*,,,,,,
004580,14/12/19 00:21:07,14/12/19 01:53:42,7935,0,0.0000,,7935,0,0.0000,,,,,*,,,,,*,,,,,,,*,,,,,,
004579,14/12/18 22:48:32,14/12/19 00:21:07,7935,0,0.0000,,7935,0,0.0000,,,,,*,,,,,*,,,,,,,*,,,,,,
004578,14/12/18 21:15:58,14/12/18 22:48:32,7936,0,0.0000,,7936,0,0.0000,,,,,*,,,,,*,,,,,,,*,,,,,,
004577,14/12/18 19:43:23,14/12/18 21:15:58,7935,0,0.0000,,7935,0,0.0000,,,,,*,,,,,*,,,,,,,*,,,,,,
004576,14/12/18 18:10:49,14/12/18 19:43:23,7935,0,0.0000,,7935,0,0.0000,,,,,*,,,,,*,,,,,,,*,,,,,,
004575,14/12/18 16:38:14,14/12/18 18:10:49,7935,0,0.0000,,7935,0,0.0000,,,,,*,,,,,*,,,,,,,*,,,,,,
004574,14/12/18 15:05:39,14/12/18 16:38:14,7936,0,0.0000,,7936,0,0.0000,,,,,*,,,,,*,,,,,,,*,,,,,,
004573,14/12/18 13:33:04,14/12/18 15:05:39,7935,0,0.0000,,7935,0,0.0000,,,,,*,,,,,*,,,,,,,*,,,,,,
004572,14/12/18 12:00:30,14/12/18 13:33:04,7935,0,0.0000,,7935,0,0.0000,,,,,*,,,,,*,,,,,,,*,,,,,,
004571,14/12/18 10:27:55,14/12/18 12:00:30,7935,0,0.0000,,7935,0,0.0000,,,,,*,,,,,*,,,,,,,*,,,,,,
004570,14/12/18 08:55:20,14/12/18 10:27:55,7936,0,0.0000,,7936,0,0.0000,,,,,*,,,,,*,,,,,,,*,,,,,,
004569,14/12/18 07:22:45,14/12/18 08:55:20,7935,0,0.0000,,7935,0,0.0000,,,,,*,,,,,*,,,,,,,*,,,,,,
004568,14/12/18 05:50:11,14/12/18 07:22:45,7936,0,0.0000,,7936,0,0.0000,,,,,*,,,,,*,,,,,,,*,,,,,,
004567,14/12/18 04:17:36,14/12/18 05:50:11,7935,0,0.0000,,7935,0,0.0000,,,,,*,,,,,*,,,,,,,*,,,,,,
004566,14/12/18 02:45:01,14/12/18 04:17:36,7935,0,0.0000,,7935,0,0.0000,,,,,*,,,,,*,,,,,,,*,,,,,,
004565,14/12/18 01:12:26,14/12/18 02:45:01,7936,0,0.0000,,7936,0,0.0000,,,,,*,,,,,*,,,,,,,*,,,,,,
004564,14/12/17 23:39:51,14/12/18 01:12:26,7935,0,0.0000,,7935,0,0.0000,,,,,*,,,,,*,,,,,,,*,,,,,,
004563,14/12/17 22:07:17,14/12/17 23:39:51,7936,0,0.0000,,7936,0,0.0000,,,,,*,,,,,*,,,,,,,*,,,,,,
004562,14/12/17 20:34:42,14/12/17 22:07:17,7935,0,0.0000,,7935,0,0.0000,,,,,*,,,,,*,,,,,,,*,,,,,,
004561,14/12/17 19:02:07,14/12/17 20:34:42,7936,0,0.0000,,7936,0,0.0000,,,,,*,,,,,*,,,,,,,*,,,,,,
004560,14/12/17 17:29:32,14/12/17 19:02:07,7935,0,0.0000,,7935,0,0.0000,,,,,*,,,,,*,,,,,,,*,,,,,,
004559,14/12/17 15:56:57,14/12/17 17:29:32,7936,0,0.0000,,7936,0,0.0000,,,,,*,,,,,*,,,,,,,*,,,,,,
004558,14/12/17 14:24:26,14/12/17 15:56:57,7931,3169,39.9600,Delta-V maneuver & Int. cal.,7931,3169,39.9600,Delta-V maneuver & Int. cal.,,,,*,*,*,,,*,,*,,,,,*,,*,,,,
004557,14/12/17 12:51:55,14/12/17 14:24:26,7929,0,0.0000,,7929,0,0.0000,,,,,*,,,,,*,,,,,,,*,,,,,,
004556,14/12/17 11:19:25,14/12/17 12:51:55,7929,0,0.0000,,7929,0,0.0000,,,,,*,,,,,*,,,,,,,*,,,,,,
004555,14/12/17 09:46:55,14/12/17 11:19:25,7929,0,0.0000,,7929,0,0.0000,,,,,*,,,,,*,,,,,,,*,,,,,,
004554,14/12/17 08:14:24,14/12/17 09:46:55,7929,0,0.0000,,7929,0,0.0000,,,,,*,,,,,*,,,,,,,*,,,,,,
004553,14/12/17 06:41:54,14/12/17 08:14:24,7929,0,0.0000,,7929,0,0.0000,,,,,*,,,,,*,,,,,,,*,,,,,,
004552,14/12/17 05:09:23,14/12/17 06:41:54,7929,0,0.0000,,7929,0,0.0000,,,,,*,,,,,*,,,,,,,*,,,,,,
004551,14/12/17 03:36:53,14/12/17 05:09:23,7930,0,0.0000,,7930,0,0.0000,,,,,*,,,,,*,,,,,,,*,,,,,,
004550,14/12/17 02:04:22,14/12/17 03:36:53,7929,0,0.0000,,7929,0,0.0000,,,,,*,,,,,*,,,,,,,*,,,,,,
004549,14/12/17 00:31:52,14/12/17 02:04:22,7929,0,0.0000,,7929,0,0.0000,,,,,*,,,,,*,,,,,,,*,,,,,,
004548,14/12/16 22:59:21,14/12/17 00:31:52,7929,0,0.0000,,7929,0,0.0000,,,,,*,,,,,*,,,,,,,*,,,,,,
004547,14/12/16 21:26:51,14/12/16 22:59:21,7929,0,0.0000,,7929,0,0.0000,,,,,*,,,,,*,,,,,,,*,,,,,,
004546,14/12/16 19:54:21,14/12/16 21:26:51,7929,0,0.0000,,7929,0,0.0000,,,,,*,,,,,*,,,,,,,*,,,,,,